960  
ASUS46 KPDT 300825  
RWRPDT  
PENDLETON REGIONAL WEATHER ROUNDUP  
NATIONAL WEATHER SERVICE PENDLETON OREGON  
100 AM PDT THU MAR 30 2017  
 
NOTE: FAIR INDICATES FEW OR NO CLOUDS BELOW 12,000 FEET WITH NO  
SIGNIFICANT WEATHER AND/OR S TO VISIBILITY
.  
 
# INDICATES UNOFFICIAL STATION AND DATA  
 
WAZ520-300910-  
EAST SLOPES OF WASHINGTON CASCADES  
 
CITY SKY/WX TMP DP RH WIND PRES REMARKS
 
#CLE ELUM HS N/A 38 32 79 W1 29.88F  
#CLE ELUM LAKE N/A N/A N/A N/A W9 29.93F  
#GLENWOOD N/A 41 35 79 S6 29.95R  
#MANASTASH CYN N/A 34 28 78 CALM 29.87S  
#NELSON 3SW N/A 35 32 89 NW2 30.17R  
#NILE N/A 35 33 92 CALM 29.21S  
#TEANAWAY 4NE N/A 38 34 85 N3 N/A  
#TROUT LAKE 1NE N/A 39 35 85 NW1 29.98S  
#TROUT LAKE 1E N/A 33 32 96 CALM 29.98S  

 
 
WAZ521-300910-  
SIMCOE HIGHLANDS  
 
CITY SKY/WX TMP DP RH WIND PRES REMARKS
 
#BICKLETON HS N/A 41 31 67 W20 29.90F WCI 32  
#CENTERVILLE 1SWN/A 40 35 82 NW10 29.91F  
#GOLDENDALE 1NE N/A 42 28 57 W2 N/A  
#GOLDENDALE 4W N/A 41 22 46 NW9 29.97F  
#GOODNOE HILLS N/A 45 35 68 W23 29.83S WCI 36  
#LYLE 6NE N/A 42 38 86 W12 29.93S WCI 35  
#PITT 4SE N/A 37 34 89 W12 29.97F WCI 29  

 
 
WAZ026-300910-  
KITTITAS VALLEY  
 
CITY SKY/WX TMP DP RH WIND PRES REMARKS
 
ELLENSBURG AP CLEAR 41 31 67 NW18 29.90F WCI 32  
#ELLENSBURG CWU N/A 41 33 73 NW15 29.86S WCI 33  
#ELLENSBURG 3NE N/A 40 34 79 N8 28.00R  
#ELLENSBURG 1E N/A 41 N/A N/A NW2 N/A  
#ELLENSBURG 13S N/A 43 32 65 NE2 N/A  
#KITTITAS 4N N/A 40 31 70 W8 29.92S  
#KITTITAS 3S N/A 39 34 82 NW6 29.92R  
#THORP 6N N/A 38 32 79 W20G41 29.95R WCI 28  

 
 
WAZ027-300910-  
YAKIMA VALLEY  
 
CITY SKY/WX TMP DP RH WIND PRES REMARKS
 
SUNNYSIDE AP CLEAR 42 34 73 CALM 29.91R  
YAKIMA AIRPORT CLEAR 45 35 68 W8 29.91S  
YAKIMA-VAGABOND CLEAR 39 33 79 E6 29.89R  
#DONALD 2NE N/A 59 3 10 S14 30.07S  
#GRANDVIEW N/A 44 34 68 CALM 29.92R  
#MABTON N/A 47 37 68 NW1 29.91R  
#MOXEE 2E N/A 42 0 17 E3 29.89R  
#NACHES 2SW N/A 42 36 79 W6 29.84S  
#TERRACE HTS N/A 42 36 79 N3 29.88S  
#TOPPENISH N/A 48 36 63 NW8 29.83S  
#WEST VALLEY N/A 45 35 68 W3 29.89S  
#W YAKIMA N/A 44 36 73 NW3 29.91S  
#WHITE SWAN 5E N/A 47 36 65 SW2 29.91S  
#WILEY CITY 3W N/A 41 30 65 CALM 29.88R  

 
 
WAZ028-300910-  
LOWER COLUMBIA BASIN...WASHINGTON  
 
CITY SKY/WX TMP DP RH WIND PRES REMARKS
 
PASCO PTCLDY 48 35 60 W8 29.92R  
PROSSER AWOS N/A 41 36 82 S5 29.95R  
RICHLAND AWOS PTCLDY 47 38 71 SW8 29.91R  
#BENTON CITY N/A 43 37 79 CALM 29.82R  
#CONNELL 5N N/A 41 38 89 W5 29.89R  
#CONNELL 5NW N/A 41 38 89 S2 29.84R  
#ELTOPIA 6NW N/A 46 40 79 W1 28.86R  
#KAHLOTUS N/A 47 39 74 NW15 29.88R WCI 41  
#KENNEWICK 3S N/A 47 39 74 W5 29.90R  
#PATERSON N/A 48 40 74 N3 29.91S  
#SAGEMOOR 2W N/A 45 38 76 W2 29.77R  
#TOUCHET 2S N/A 51 43 74 SW16 29.88S  
#WEST PASCO N/A 48 37 65 CALM 29.90R  

 
 
WAZ029-300910-  
FOOTHILLS OF THE BLUES...WASHINGTON  
 
CITY SKY/WX TMP DP RH WIND PRES REMARKS
 
WALLA WALLA AP CLOUDY 51 41 68 S8 29.92S  
#CLYDE 6NW N/A 44 38 79 SW5 29.88R  
#DAYTON SCHOOL N/A 49 35 58 S10 29.92S  
#LOWDEN 2SE N/A 51 44 77 W2 29.88S  
#PLEASANT VIEW 1N/A 40 38 92 SW6 29.93R  
#PRESCOTT N/A 49 44 83 CALM 29.89R  
#WHITMAN COLLEGEN/A 52 40 63 S5 29.97R  
#WAITSBURG 5S N/A 47 42 83 S7 30.00R  
#WAITSBURG 8N N/A 44 N/A N/A S10 29.89S  
#WALLA WALLA 5E N/A 49 43 80 S9 N/A  
#WALLA WALLA U N/A 53 42 66 SW3 29.92R  
#WHITMAN MISSIONN/A 52 44 74 S2 29.93S  

 
 
WAZ030-300910-  
BLUE MOUNTAINS...WASHINGTON  
 
CITY SKY/WX TMP DP RH WIND PRES REMARKS
 
#DIXIE 5SE N/A 42 38 86 SW7 29.84S  

 
 
ORZ009-041-WAZ024-300910-  
COLUMBIA RIVER GORGE  
 
CITY SKY/WX TMP DP RH WIND PRES REMARKS
 
HOOD RIVER AP PTCLDY 46 37 71 W3 30.02R  
THE DALLES AP PTCLDY 49 40 71 CALM 29.97F  
#ARLINGTON AIRPON/A 46 40 79 W10 29.95R  
#CELILO DOT N/A 49 36 61 SW9 N/A  
#LYLE N/A 48 42 80 N14 30.00S WCI 42  
#MOSIER 1S N/A 44 28 53 CALM 29.97S  
#MURDOCK N/A 48 41 77 N16G26 29.95R WCI 42  
#RUFUS DOT N/A 51 38 61 W21 N/A  
#SMITHVILLE N/A 48 42 80 N15G24 29.91F WCI 42  
 

 
 
ORZ510-300910-  
NORTH CENTRAL OREGON  
 
CITY SKY/WX TMP DP RH WIND PRES REMARKS
 
#ANTELOPE N/A 42 33 70 W6 29.82R  
#CHENOWITH 1W N/A 41 38 89 W37 N/A WCI 29  
#COW CYN RST AREN/A 41 33 73 W9 N/A  
#DUFUR N/A 42 37 82 NE1 29.94R  
#DUFUR 9E N/A 39 37 92 W8 30.02R  
#GRASS VALLEY 1SN/A 41 36 82 W6 30.09S  
#KENT DOT N/A 40 32 73 N10 N/A  
#MAUPIN SCHOOL N/A 48 37 65 CALM 30.02R  
#MORO SCHOOL N/A 43 41 93 W10 30.03R  
#SHANIKO 5WSW N/A 38 28 67 N10 N/A  
#SHANIKO 4NW N/A 37 33 85 W10 29.92F  
#TYGH VALLEY 2NEN/A 46 37 71 CALM 29.96R  
#WAPANITIA AIRPON/A 43 36 76 W7 29.98R  
#WASCO 5NE N/A 41 38 89 SW8 29.95R  

 
 
ORZ511-300910-  
CENTRAL OREGON  
 
CITY SKY/WX TMP DP RH WIND PRES REMARKS
 
BEND AIRPORT MOCLDY 39 34 82 NW17G25 29.96R WCI 30  
MADRAS AIRPORT CLOUDY 43 36 76 N6 29.98R  
PRINEVILLE AP CLOUDY 41 39 93 W7 29.94S  
REDMOND AIRPORT CLOUDY 42 34 73 W16G24 29.95R WCI 34  
#ASHWOOD SCHOOL N/A 43 34 70 NW6 29.93R  
#BEND 1SW N/A 38 36 92 CALM N/A  
#BEND-AWBREY N/A 37 35 92 NE3 29.94R  
#BEND-KIM LN N/A 38 34 85 W6 29.88R  
#CULVER N/A 43 36 76 W2 29.88R  
#CULVER 8W N/A 42 33 70 CALM 29.98R  
#POWELL BUTTE N/A 40 38 92 W9 29.91R  
#PRINEVILLE N/A 40 37 89 NW2 30.03R  
#PRINEVILLE 3N N/A 41 38 89 N2 29.93R  
#WARM SPRINGS N/A 47 35 63 CALM 29.94R  
 

 
 
 
ORZ509-300910-  
EAST SLOPES OF OREGON CASCADES  
 
CITY SKY/WX TMP DP RH WIND PRES REMARKS
 
SISTERS AWOS N/A 37 34 89 SW9 29.94S  
#BLUE BOX PASS N/A 32 N/A N/A NW7 N/A  
#CAMP SHERMAN N/A 39 34 82 CALM 30.04R  
#LA PINE DOT N/A 37 35 92 NW8 N/A  
#LA PINE 4NW N/A 35 32 89 CALM 29.98S  
#LAVA BUTTE DOT N/A 36 35 96 CALM N/A  
#SISTERS 3N N/A 38 31 76 W5 30.08S  
#SUNRIVER N/A 37 34 89 CALM 29.95S  
#TUMALO 3W N/A 35 32 89 W20 29.83R WCI 24  
#WANOGA BUTTE D N/A 28 28 100 W7 N/A  
 

 
 
ORZ044-300910-  
LOWER COLUMBIA BASIN...OREGON  
 
CITY SKY/WX TMP DP RH WIND PRES REMARKS
 
HERMISTON PTCLDY 50 40 68 SW15 29.91F  
#BOARDMAN SCHOOLN/A 51 41 68 N9 29.92S  
#BOARDMAN 8SW N/A 47 41 79 SW7 29.92R  
#ECHO 8SW N/A 47 43 86 S1 29.94S  
#I-84 EX 198 DOTN/A 47 42 83 N10 N/A  
#IONE SCHOOL N/A 47 28 47 SW15 29.96S WCI 41  
#UMATILLA N/A 49 39 68 SW3 29.85S  

 
 
ORZ507-300910-  
NORTHERN FOOTHILLS OF THE BLUES  
 
CITY SKY/WX TMP DP RH WIND PRES REMARKS
 
PENDLETON AIRPT CLOUDY 46 41 83 SW9 29.92S  
#ADAMS 3WNW N/A 45 42 89 S3 29.91F  
#ATHENA N/A 46 42 86 SW3 29.95S  
#CAYUSE N/A 47 41 79 SW5 29.93S  
#HELIX SCHOOL N/A 46 42 86 N6 29.92F  
#HELIX 3N N/A 45 41 86 SW12 29.89S WCI 39  
#HOLDMAN 5SE N/A 47 41 79 SW7 29.91F  
#HOLDMAN 6E N/A 46 42 86 S10 29.72S  
#M-F FERNDALE N/A 52 41 66 CALM 29.91R  
#M-F GROVE ELEM N/A 49 41 74 S6 29.90S  
#M-FREEWATER 5SEN/A 49 41 74 S5 29.92F  
#PENDLETON DNTN N/A 48 44 86 CALM 29.92S  
#PDT AQUATIC CTRN/A 47 41 79 CALM 29.93S  
#PDT SUNRIDGE N/A 47 41 79 S1 29.95S  
#PENDLETON 7NW N/A 47 40 76 SW8 29.50S  
#PILOT ROCK 1S N/A 45 36 70 CALM 29.94S  
#PILOT ROCK N/A 46 40 79 SW2 29.95S  
#TUTUILLA N/A 47 42 83 CALM 29.95S  
#UMAPINE 2E N/A 53 51 93 W1 29.92S  
#WESTON SCHOOL N/A 46 40 79 W9 29.97R  
 

 
 
ORZ508-300910-  
SOUTHERN FOOTHILLS OF THE BLUES  
 
CITY SKY/WX TMP DP RH WIND PRES REMARKS
 
LEXINGTON PTCLDY 45 41 86 SW15 29.97S WCI 38  
#AJAX N/A 42 31 65 SW9 30.11R  
#CONDON SCHOOL N/A 41 37 86 NW5 29.90S  
#CONDON 5W N/A 38 32 79 W9 29.91S  
#HEPPNER EOC N/A 44 40 86 W1 29.87F  
#LEXINGTON 2SE N/A 46 40 79 CALM 29.91R  
#MIKKALO N/A 44 37 76 W9 30.05R  
#OLEX 4N N/A 45 40 82 W16 29.93S WCI 38  
#RUGGS 5NE N/A 41 40 96 W7 30.04F  
#RUGGS 2SW N/A 42 39 89 W7 29.94S  
 

 
 
ORZ502-503-300910-  
BLUE MOUNTAINS  
 
CITY SKY/WX TMP DP RH WIND PRES REMARKS
 
MEACHAM LGT RAIN 39 34 82 VRB3 29.91S  
#BATTLE MTN DOT N/A 36 35 96 W3 N/A  
#GREENHORN 9SW N/A 40 40 100 CALM 26.10F  
#HARDMAN 10S N/A 36 34 92 N1 30.03F  
#HEPPNER 15SE N/A 36 34 92 W3 29.93F  
#LADD CYN SMT N/A 40 39 96 CALM N/A  
#LADD CREEK ODOTN/A 42 40 93 SW1 N/A  
#LONG CREEK HS N/A 41 40 96 CALM N/A  
#N POWDER DOT N/A 42 41 96 N5 N/A  
#PIKES PEAK N/A 40 34 79 W14 27.99S WCI 32  
#TROY SCHOOL N/A 44 43 96 CALM 29.77R  
#UKIAH N/A 40 38 92 N7 29.83S  
#WESTON 4E N/A 40 38 92 S3 29.91R  

 
 
ORZ505-300910-  
JOHN DAY BASIN  
 
CITY SKY/WX TMP DP RH WIND PRES REMARKS
 
JOHN DAY LGT SNOW 46 41 83 CALM 29.89F  
#JOHN DAY KJDY N/A 45 N/A N/A CALM 29.18F  
#ANTELOPE 9ESE N/A 46 41 83 CALM N/A  
#DAYVILLE SCHOOLN/A 46 39 76 NW1 29.89S  
#MITCHELL N/A 41 40 96 CALM 30.10R  
#MITCHELL 8NW N/A 38 35 89 CALM 29.86R  
#MONUMENT HS N/A 45 39 79 N2 29.90R  
#MT. VERNON 5SE N/A 43 38 82 CALM 29.83F  
#SPRAY SCHOOL N/A 45 N/A N/A CALM N/A  
#WINLOCK N/A 42 38 86 NW12 29.90S WCI 35  

 
 
ORZ506-300910-  
OCHOCO AND JOHN DAY HIGHLANDS  
 
CITY SKY/WX TMP DP RH WIND PRES REMARKS
 
#HORSE RIDGE DO N/A 35 33 92 NW14 N/A WCI 26  
#PAULINA SCHOOL N/A 41 38 89 W10 N/A  
#PINE MTN OBS N/A 30 29 96 NW8 N/A  
#PRAIRIE CITY N/A 40 38 92 CALM 30.06F  
#SENECA N/A 37 N/A N/A CALM N/A  
#SENECA 9NW N/A 34 33 96 CALM 29.88F  

 
 
ORZ049-300910-  
GRANDE RONDE VALLEY  
 
CITY SKY/WX TMP DP RH WIND PRES REMARKS
 
LA GRANDE CLOUDY 45 37 73 NW12 29.91S WCI 39  
#COVE N/A 44 44 100 CALM 29.94S  
#COVE SCHOOL N/A 44 42 93 CALM 29.93S  
#COVE 6NW N/A 45 42 89 CALM 29.91F  
#ELGIN 3N N/A 42 36 79 NW3 29.89R  
#ELGIN 1E N/A 44 39 82 W5 N/A  
#IMBLER SCHOOL N/A 41 37 86 N5 29.89R  
#ISLAND CITY 4N N/A 44 41 89 CALM 30.10R  
#LADD CYN DOT N/A 44 43 96 NE2 N/A  
#UNION 1S N/A 46 42 86 CALM 29.91S  

 
 
ORZ050-300910-  
WALLOWA COUNTY  
 
CITY SKY/WX TMP DP RH WIND PRES REMARKS
 
JOSEPH AIRPORT LGT RAIN 41 41 100 CALM 29.89F  
#IMNAHA SCHOOL N/A 47 44 89 N1 29.89F  
#JOSEPH 3N N/A 40 35 82 CALM 29.92F  
#JOSEPH 3W N/A 38 38 100 CALM 29.74F  
#LOSTINE N/A 42 40 93 N2 29.71S  
#LOSTINE 3SE N/A 41 39 93 VRB7 29.93F  
#MT HOWARD 8000 N/A 28 27 96 CALM 29.84F  
#PROMISE 1S N/A 40 35 82 SE9 29.99R  
#WALLOWA SCHOOL N/A 42 39 89 CALM 29.89R  
 

 
 
CLICK HERE TO GO TO PREVIOUS BULLETINS.

The Nexlab OR Page
The Nexlab WA Page Main Text Page